TimeEST,TemperatureF,Dew PointF,Humidity,Sea Level PressureIn,VisibilityMPH,Wind Direction,Wind SpeedMPH,Gust SpeedMPH,PrecipitationIn,Events,Conditions,WindDirDegrees,DateUTC
12:55 AM,37.4,35.6,93,30.33,10.0,ENE,3.5,-,N/A,,Overcast,60,2013-01-28 05:55:00
1:15 AM,37.4,35.6,93,30.33,10.0,NE,4.6,-,N/A,,Light Drizzle,40,2013-01-28 06:15:00
1:35 AM,37.4,33.8,87,30.33,10.0,ENE,4.6,-,N/A,Rain,Light Rain,70,2013-01-28 06:35:00
1:55 AM,37.4,35.6,93,30.32,10.0,East,5.8,-,N/A,Rain,Light Rain,80,2013-01-28 06:55:00
2:15 AM,37.4,35.6,93,30.32,9.0,East,4.6,-,N/A,Rain,Light Rain,80,2013-01-28 07:15:00
2:35 AM,37.4,35.6,93,30.33,10.0,Calm,Calm,-,N/A,Rain,Light Rain,0,2013-01-28 07:35:00
2:55 AM,37.4,35.6,93,30.33,10.0,NE,3.5,-,N/A,Rain,Light Rain,40,2013-01-28 07:55:00
3:15 AM,37.4,35.6,93,30.32,10.0,NE,3.5,-,N/A,,Scattered Clouds,50,2013-01-28 08:15:00
3:35 AM,37.4,35.6,93,30.32,10.0,ENE,4.6,-,N/A,,Scattered Clouds,60,2013-01-28 08:35:00
3:55 AM,37.4,33.8,87,30.32,10.0,ENE,4.6,-,N/A,,Mostly Cloudy,70,2013-01-28 08:55:00
4:15 AM,37.4,35.6,93,30.32,10.0,NNE,3.5,-,N/A,,Overcast,30,2013-01-28 09:15:00
4:35 AM,37.4,35.6,93,30.32,10.0,NE,4.6,-,N/A,,Overcast,50,2013-01-28 09:35:00
4:55 AM,37.4,33.8,87,30.33,10.0,Calm,Calm,-,N/A,,Overcast,0,2013-01-28 09:55:00
5:15 AM,37.4,35.6,93,30.33,10.0,Calm,Calm,-,N/A,,Overcast,0,2013-01-28 10:15:00
5:35 AM,37.4,35.6,93,30.34,10.0,Calm,Calm,-,N/A,,Overcast,0,2013-01-28 10:35:00
5:55 AM,37.4,35.6,93,30.34,10.0,NE,3.5,-,N/A,,Overcast,50,2013-01-28 10:55:00
6:15 AM,37.4,33.8,87,30.35,10.0,Calm,Calm,-,N/A,,Scattered Clouds,0,2013-01-28 11:15:00
6:35 AM,35.6,33.8,93,30.36,10.0,Calm,Calm,-,N/A,,Mostly Cloudy,0,2013-01-28 11:35:00
7:15 AM,35.6,35.6,100,30.36,10.0,ENE,3.5,-,N/A,,Overcast,70,2013-01-28 12:15:00
7:35 AM,35.6,35.6,100,30.36,10.0,East,4.6,-,N/A,,Overcast,80,2013-01-28 12:35:00
7:55 AM,35.6,35.6,100,30.35,10.0,NE,4.6,-,N/A,,Overcast,50,2013-01-28 12:55:00
8:15 AM,37.4,35.6,93,30.35,10.0,NE,5.8,-,N/A,,Overcast,50,2013-01-28 13:15:00
8:35 AM,37.4,35.6,93,30.35,10.0,NE,3.5,-,N/A,,Overcast,40,2013-01-28 13:35:00
8:55 AM,37.4,35.6,93,30.35,10.0,NE,3.5,-,N/A,,Overcast,50,2013-01-28 13:55:00
9:15 AM,39.2,35.6,87,30.35,10.0,NE,4.6,-,N/A,,Mostly Cloudy,50,2013-01-28 14:15:00
9:35 AM,39.2,35.6,87,30.34,10.0,ENE,5.8,-,N/A,,Mostly Cloudy,70,2013-01-28 14:35:00
9:55 AM,42.8,37.4,81,30.34,10.0,ENE,4.6,-,N/A,,Scattered Clouds,70,2013-01-28 14:55:00
10:15 AM,44.6,37.4,76,30.33,10.0,Variable,4.6,-,N/A,,Clear,0,2013-01-28 15:15:00
10:35 AM,46.4,37.4,71,30.33,10.0,East,5.8,-,N/A,,Clear,80,2013-01-28 15:35:00
10:55 AM,46.4,37.4,71,30.32,10.0,ESE,5.8,-,N/A,,Clear,110,2013-01-28 15:55:00
11:15 AM,48.2,37.4,66,30.31,10.0,ESE,4.6,-,N/A,,Clear,110,2013-01-28 16:15:00
11:35 AM,51.8,39.2,62,30.30,10.0,SE,4.6,-,N/A,,Clear,130,2013-01-28 16:35:00
11:55 AM,53.6,39.2,58,30.28,10.0,Calm,Calm,-,N/A,,Clear,0,2013-01-28 16:55:00
12:35 PM,57.2,41.0,55,30.24,10.0,Calm,Calm,-,N/A,,Clear,0,2013-01-28 17:35:00
12:55 PM,60.8,41.0,48,30.23,10.0,SSW,3.5,-,N/A,,Clear,200,2013-01-28 17:55:00
1:15 PM,62.6,42.8,48,30.22,10.0,Variable,5.8,-,N/A,,Clear,0,2013-01-28 18:15:00
1:35 PM,62.6,42.8,48,30.21,10.0,West,9.2,-,N/A,,Clear,270,2013-01-28 18:35:00
1:55 PM,60.8,42.8,52,30.21,10.0,West,11.5,-,N/A,,Clear,280,2013-01-28 18:55:00
2:15 PM,60.8,41.0,48,30.21,10.0,West,11.5,-,N/A,,Clear,270,2013-01-28 19:15:00
2:35 PM,60.8,41.0,48,30.21,10.0,Variable,5.8,-,N/A,,Clear,0,2013-01-28 19:35:00
2:55 PM,59.0,41.0,51,30.21,10.0,WNW,10.4,-,N/A,,Clear,290,2013-01-28 19:55:00
3:15 PM,60.8,42.8,52,30.21,10.0,West,6.9,-,N/A,,Scattered Clouds,270,2013-01-28 20:15:00
3:35 PM,60.8,42.8,52,30.21,10.0,WSW,5.8,-,N/A,,Partly Cloudy,240,2013-01-28 20:35:00
3:55 PM,60.8,42.8,52,30.20,10.0,Variable,3.5,-,N/A,,Partly Cloudy,0,2013-01-28 20:55:00
4:15 PM,59.0,42.8,55,30.20,10.0,WNW,5.8,-,N/A,,Scattered Clouds,290,2013-01-28 21:15:00
4:35 PM,59.0,42.8,55,30.21,10.0,WSW,4.6,-,N/A,,Overcast,240,2013-01-28 21:35:00
4:55 PM,57.2,42.8,59,30.21,10.0,WSW,6.9,-,N/A,,Overcast,240,2013-01-28 21:55:00
5:15 PM,57.2,42.8,59,30.21,10.0,Calm,Calm,-,N/A,,Overcast,0,2013-01-28 22:15:00
5:35 PM,55.4,42.8,63,30.21,10.0,West,5.8,-,N/A,,Overcast,260,2013-01-28 22:35:00
5:55 PM,55.4,42.8,63,30.22,10.0,WNW,6.9,-,N/A,,Overcast,300,2013-01-28 22:55:00
6:15 PM,55.4,42.8,63,30.22,10.0,West,5.8,-,N/A,,Overcast,270,2013-01-28 23:15:00
6:35 PM,55.4,42.8,63,30.23,10.0,West,4.6,-,N/A,,Overcast,280,2013-01-28 23:35:00
6:55 PM,53.6,42.8,67,30.23,10.0,West,5.8,-,N/A,,Overcast,270,2013-01-28 23:55:00
7:15 PM,53.6,42.8,67,30.23,10.0,WSW,4.6,-,N/A,,Overcast,250,2013-01-29 00:15:00
7:35 PM,53.6,42.8,67,30.23,10.0,WSW,3.5,-,N/A,,Overcast,250,2013-01-29 00:35:00
7:55 PM,53.6,42.8,67,30.24,10.0,WSW,4.6,-,N/A,,Overcast,250,2013-01-29 00:55:00
8:15 PM,53.6,42.8,67,30.24,10.0,WSW,4.6,-,N/A,,Light Drizzle,240,2013-01-29 01:15:00
8:35 PM,51.8,42.8,71,30.25,10.0,Calm,Calm,-,N/A,,Overcast,0,2013-01-29 01:35:00
8:55 PM,51.8,42.8,71,30.25,10.0,West,4.6,-,N/A,Rain,Light Rain,260,2013-01-29 01:55:00
9:15 PM,50.0,44.6,82,30.25,10.0,Calm,Calm,-,N/A,,Overcast,0,2013-01-29 02:15:00
9:35 PM,48.2,44.6,87,30.25,8.0,ENE,3.5,-,N/A,,Overcast,70,2013-01-29 02:35:00
9:55 PM,48.2,44.6,87,30.24,10.0,NE,3.5,-,N/A,,Overcast,50,2013-01-29 02:55:00
10:15 PM,48.2,44.6,87,30.24,10.0,Calm,Calm,-,N/A,,Overcast,0,2013-01-29 03:15:00
10:35 PM,48.2,44.6,87,30.24,4.0,East,4.6,-,N/A,Rain,Light Rain,90,2013-01-29 03:35:00
10:55 PM,46.4,44.6,93,30.24,6.0,ENE,4.6,-,N/A,Rain,Light Rain,70,2013-01-29 03:55:00
11:15 PM,46.4,44.6,93,30.23,4.0,East,4.6,-,N/A,Rain,Light Rain,80,2013-01-29 04:15:00
11:35 PM,46.4,44.6,93,30.23,6.0,Calm,Calm,-,N/A,,Overcast,0,2013-01-29 04:35:00
11:55 PM,46.4,44.6,93,30.23,10.0,NNE,3.5,-,N/A,,Light Drizzle,30,2013-01-29 04:55:00